Location: Arboyeti
(42.1122°N, 44.6017°E)
Time: 20:24:38
(UTC+00:00)

IRIDIUM 106 - Pass Details

Date: 19 April 2021
Orbit: 776 x 779 km, 86.4° (Epoch: 18 May)

Event Time Altitude Azimuth Distance (km) Brightness Sun altitude
Exits shadow 17:21:33 20° 160° (SSE) 1,717 5.7 -16.7°
Maximum altitude 17:25:00 57° 88° (E) 917 4.4 -17.2°
Drops below altitude 10° 17:30:07 10° 11° (N) 2,339 7.1 -18.0°
Sets 17:32:30 0° 8° (N) 3,271 8.0 -18.3°
